{"data":{"norad_id":60489,"intl_designator":"2024-149X","name":"FLOCK 4BE-20","alt_names":[],"object_type":"PAYLOAD","status":"ACTIVE","operator":null,"country":"US","launch_date":"2024-08-16","launch_site_code":"AFWTR","launch_vehicle":null,"mission":null,"orbit_class":"UNKNOWN","rcs_meters":null,"size_class":null,"mass_kg":null,"dimensions":null,"purposes":["earth_obs"],"wikipedia_slug":null,"has_3d_model":false,"image_url":null,"decayed_at":null,"tle_current":{"epoch":"2026-05-25T03:29:33.339264Z","epoch_age_seconds":55685,"freshness":"FRESH","line1":"1 60489U 24149X   26145.14552476  .00013515  00000+0  37098-3 0  9993","line2":"2 60489  97.3693 227.0892 0003088  16.6555 343.4790 15.37368419 98670","mean_motion":15.37368419,"eccentricity":0.0003088,"inclination_deg":97.3693,"raan_deg":227.0892,"arg_perigee_deg":16.6555,"mean_anomaly_deg":343.479,"bstar":0.00037098,"rev_number":9867,"period_min":93.666552675556,"perigee_km":451.78494119756,"apogee_km":456.00440395855,"semimajor_km":6832.0316725781,"source":"CELESTRAK","updated_at":"2026-05-25T13:38:13.303483Z"}}}